Time,TemperatureF,DewpointF,PressureIn,WindDirection,WindDirectionDegrees,WindSpeedMPH,WindSpeedGustMPH,Humidity,HourlyPrecipIn,Conditions,Clouds,dailyrainin,SoftwareType,DateUTC
2013-02-13 00:00:00,39.2,36.9,29.93,NNE,17,1.0,2.0,91,0.00,,,0.06,meteohub,2013-02-13 05:00:00,
2013-02-13 00:05:00,39.2,36.5,29.94,NNW,338,1.0,4.0,90,0.00,,,0.06,meteohub,2013-02-13 05:05:00,
2013-02-13 00:10:00,39.2,37.0,29.93,NE,36,2.0,4.0,92,0.00,,,0.06,meteohub,2013-02-13 05:10:00,
2013-02-13 00:15:00,39.0,37.2,29.93,North,11,0.0,4.0,93,0.00,,,0.06,meteohub,2013-02-13 05:15:00,
2013-02-13 00:20:00,39.0,37.4,29.91,NE,36,0.0,4.0,94,0.00,,,0.06,meteohub,2013-02-13 05:20:00,
2013-02-13 00:25:00,38.8,37.2,29.91,North,1,1.0,4.0,94,0.01,,,0.07,meteohub,2013-02-13 05:25:00,
2013-02-13 00:30:00,38.7,37.4,29.92,NW,315,0.0,4.0,95,0.01,,,0.07,meteohub,2013-02-13 05:30:00,
2013-02-13 00:35:00,38.5,37.2,29.89,ENE,61,1.0,3.0,95,0.01,,,0.07,meteohub,2013-02-13 05:35:00,
2013-02-13 00:40:00,38.5,37.2,29.91,NNW,345,0.0,5.0,95,0.01,,,0.07,meteohub,2013-02-13 05:40:00,
2013-02-13 00:46:00,38.5,37.4,29.90,NNW,331,2.0,5.0,96,0.01,,,0.07,meteohub,2013-02-13 05:46:00,
2013-02-13 00:51:00,38.5,37.4,29.91,North,0,0.0,3.0,96,0.01,,,0.07,meteohub,2013-02-13 05:51:00,
2013-02-13 00:56:00,38.5,37.4,29.91,North,355,3.0,3.0,96,0.01,,,0.07,meteohub,2013-02-13 05:56:00,
2013-02-13 01:01:00,38.3,37.2,29.91,WNW,283,3.0,3.0,96,0.02,,,0.08,meteohub,2013-02-13 06:01:00,
2013-02-13 01:06:00,38.1,36.9,29.89,East,84,6.0,6.0,95,0.02,,,0.08,meteohub,2013-02-13 06:06:00,
2013-02-13 01:11:00,38.1,37.0,29.89,NW,312,5.0,8.0,96,0.02,,,0.08,meteohub,2013-02-13 06:11:00,
2013-02-13 01:16:00,38.1,37.0,29.88,East,86,1.0,8.0,96,0.03,,,0.09,meteohub,2013-02-13 06:16:00,
2013-02-13 01:21:00,37.9,36.9,29.87,NNW,328,0.0,8.0,96,0.02,,,0.09,meteohub,2013-02-13 06:21:00,
2013-02-13 01:26:00,38.1,37.0,29.88,North,6,0.0,5.0,96,0.02,,,0.09,meteohub,2013-02-13 06:26:00,
2013-02-13 01:31:00,37.9,36.9,29.87,NNW,336,1.0,3.0,96,0.02,,,0.09,meteohub,2013-02-13 06:31:00,
2013-02-13 01:36:00,37.9,36.9,29.88,NE,39,0.0,3.0,96,0.02,,,0.09,meteohub,2013-02-13 06:36:00,
2013-02-13 01:41:00,37.9,36.9,29.87,NW,321,1.0,3.0,96,0.02,,,0.09,meteohub,2013-02-13 06:41:00,
2013-02-13 01:46:00,37.9,36.9,29.88,NNW,330,0.0,3.0,96,0.02,,,0.09,meteohub,2013-02-13 06:46:00,
2013-02-13 01:51:00,37.9,36.9,29.88,NNW,341,0.0,2.0,96,0.02,,,0.09,meteohub,2013-02-13 06:51:00,
2013-02-13 01:56:00,37.9,36.9,29.87,NNE,24,1.0,2.0,96,0.02,,,0.09,meteohub,2013-02-13 06:56:00,
2013-02-13 02:01:00,37.9,36.9,29.86,North,1,0.0,2.0,96,0.02,,,0.10,meteohub,2013-02-13 07:01:00,
2013-02-13 02:06:00,36.9,35.8,29.86,North,353,2.0,4.0,96,0.02,,,0.10,meteohub,2013-02-13 07:06:00,
2013-02-13 02:11:00,36.9,35.8,29.86,North,353,2.0,4.0,96,0.02,,,0.10,meteohub,2013-02-13 07:11:00,
2013-02-13 08:47:00,37.4,36.9,29.78,North,-999,-999.0,-999.0,98,-99.99,,,0.10,meteohub,2013-02-13 13:47:00,
2013-02-13 08:52:00,37.6,37.0,29.79,North,-999,-999.0,-999.0,98,0.00,,,0.10,meteohub,2013-02-13 13:52:00,
2013-02-13 08:57:00,37.6,37.0,29.78,East,97,0.0,0.0,98,0.01,,,0.11,meteohub,2013-02-13 13:57:00,
2013-02-13 09:02:00,37.6,37.0,29.78,NW,319,1.0,1.0,98,0.01,,,0.11,meteohub,2013-02-13 14:02:00,
2013-02-13 09:07:00,37.6,37.0,29.78,East,92,0.0,3.0,98,0.01,,,0.11,meteohub,2013-02-13 14:07:00,
2013-02-13 09:12:00,37.6,37.0,29.78,West,269,0.0,3.0,98,0.01,,,0.11,meteohub,2013-02-13 14:12:00,
2013-02-13 09:17:00,37.8,37.2,29.78,West,262,1.0,3.0,98,0.01,,,0.11,meteohub,2013-02-13 14:17:00,
2013-02-13 09:22:00,37.8,37.2,29.78,SSE,149,1.0,3.0,98,0.01,,,0.11,meteohub,2013-02-13 14:22:00,
2013-02-13 09:27:00,37.8,37.2,29.78,South,172,0.0,3.0,98,0.01,,,0.11,meteohub,2013-02-13 14:27:00,
2013-02-13 09:32:00,37.8,37.2,29.78,West,271,3.0,3.0,98,0.01,,,0.11,meteohub,2013-02-13 14:32:00,
2013-02-13 09:37:00,37.8,37.2,29.78,SE,134,0.0,3.0,98,0.01,,,0.11,meteohub,2013-02-13 14:37:00,
2013-02-13 09:42:00,37.9,37.4,29.77,West,281,0.0,3.0,98,0.01,,,0.11,meteohub,2013-02-13 14:42:00,
2013-02-13 09:47:00,37.9,37.4,29.78,West,266,0.0,3.0,98,0.01,,,0.11,meteohub,2013-02-13 14:47:00,
2013-02-13 09:52:00,37.9,37.4,29.76,ESE,117,0.0,1.0,98,0.00,,,0.11,meteohub,2013-02-13 14:52:00,
2013-02-13 09:57:00,38.1,37.6,29.76,ESE,120,0.0,2.0,98,0.00,,,0.11,meteohub,2013-02-13 14:57:00,
2013-02-13 10:02:00,38.3,37.8,29.78,West,274,1.0,2.0,98,0.00,,,0.11,meteohub,2013-02-13 15:02:00,
2013-02-13 10:07:00,38.5,37.9,29.77,South,177,0.0,2.0,98,0.00,,,0.11,meteohub,2013-02-13 15:07:00,
2013-02-13 10:12:00,38.7,38.1,29.76,SE,136,0.0,2.0,98,0.00,,,0.11,meteohub,2013-02-13 15:12:00,
2013-02-13 10:17:00,38.8,38.3,29.74,South,177,0.0,2.0,98,0.00,,,0.11,meteohub,2013-02-13 15:17:00,
2013-02-13 10:22:00,38.7,38.1,29.75,WSW,249,0.0,2.0,98,0.00,,,0.11,meteohub,2013-02-13 15:22:00,
2013-02-13 10:27:00,38.8,38.3,29.75,South,191,0.0,1.0,98,0.00,,,0.11,meteohub,2013-02-13 15:27:00,
2013-02-13 10:32:00,39.0,38.5,29.77,West,265,0.0,1.0,98,0.00,,,0.11,meteohub,2013-02-13 15:32:00,
2013-02-13 10:37:00,39.4,38.8,29.75,SW,215,0.0,1.0,98,0.00,,,0.11,meteohub,2013-02-13 15:37:00,
2013-02-13 10:42:00,39.6,39.0,29.75,West,274,0.0,2.0,98,0.00,,,0.11,meteohub,2013-02-13 15:42:00,
2013-02-13 10:47:00,39.7,39.2,29.75,SSE,148,1.0,2.0,98,0.00,,,0.11,meteohub,2013-02-13 15:47:00,
2013-02-13 10:52:00,39.6,38.8,29.77,NNW,341,1.0,2.0,97,0.00,,,0.11,meteohub,2013-02-13 15:52:00,
2013-02-13 10:57:00,39.6,38.8,29.76,WSW,252,0.0,5.0,97,0.00,,,0.11,meteohub,2013-02-13 15:57:00,
2013-02-13 11:02:00,39.6,38.8,29.76,SW,236,0.0,5.0,97,0.01,,,0.12,meteohub,2013-02-13 16:02:00,
2013-02-13 11:07:00,39.7,39.0,29.76,SE,146,0.0,5.0,97,0.01,,,0.12,meteohub,2013-02-13 16:07:00,
2013-02-13 11:12:00,39.7,39.0,29.75,East,100,0.0,1.0,97,0.01,,,0.12,meteohub,2013-02-13 16:12:00,
2013-02-13 11:17:00,39.7,39.2,29.75,East,98,0.0,1.0,98,0.01,,,0.12,meteohub,2013-02-13 16:17:00,
2013-02-13 11:22:00,39.7,39.0,29.74,West,259,0.0,1.0,97,0.01,,,0.12,meteohub,2013-02-13 16:22:00,
2013-02-13 11:28:00,39.7,39.0,29.75,SE,141,0.0,1.0,97,0.01,,,0.12,meteohub,2013-02-13 16:28:00,
2013-02-13 11:33:00,39.9,39.4,29.75,SSW,203,0.0,2.0,98,0.01,,,0.12,meteohub,2013-02-13 16:33:00,
2013-02-13 11:38:00,40.1,39.6,29.75,ESE,107,0.0,2.0,98,0.01,,,0.12,meteohub,2013-02-13 16:38:00,
2013-02-13 11:43:00,40.3,39.7,29.75,West,281,0.0,1.0,98,0.01,,,0.12,meteohub,2013-02-13 16:43:00,
2013-02-13 11:48:00,40.3,39.6,29.75,WSW,256,0.0,1.0,97,0.01,,,0.12,meteohub,2013-02-13 16:48:00,
2013-02-13 11:53:00,40.5,39.9,29.75,West,269,0.0,2.0,98,0.01,,,0.12,meteohub,2013-02-13 16:53:00,
2013-02-13 11:58:00,40.5,39.7,29.74,SSW,205,0.0,2.0,97,0.01,,,0.12,meteohub,2013-02-13 16:58:00,
2013-02-13 12:03:00,40.3,39.6,29.74,NNW,332,0.0,2.0,97,0.00,,,0.12,meteohub,2013-02-13 17:03:00,
2013-02-13 12:08:00,40.5,39.7,29.74,SE,129,0.0,2.0,97,0.00,,,0.12,meteohub,2013-02-13 17:08:00,
2013-02-13 12:13:00,40.5,39.7,29.73,SE,145,1.0,2.0,97,0.00,,,0.12,meteohub,2013-02-13 17:13:00,
2013-02-13 12:18:00,40.6,39.9,29.71,North,351,1.0,2.0,97,0.00,,,0.12,meteohub,2013-02-13 17:18:00,
2013-02-13 12:23:00,40.8,40.3,29.72,SE,131,0.0,2.0,98,0.00,,,0.12,meteohub,2013-02-13 17:23:00,
2013-02-13 12:28:00,41.4,40.8,29.72,SE,141,1.0,1.0,98,0.00,,,0.12,meteohub,2013-02-13 17:28:00,
2013-02-13 12:33:00,41.5,40.8,29.70,SSW,207,3.0,3.0,97,0.00,,,0.12,meteohub,2013-02-13 17:33:00,
2013-02-13 12:38:00,41.7,41.0,29.71,SE,141,2.0,6.0,97,0.00,,,0.12,meteohub,2013-02-13 17:38:00,
2013-02-13 12:43:00,42.1,41.4,29.71,East,90,1.0,6.0,97,0.00,,,0.12,meteohub,2013-02-13 17:43:00,
2013-02-13 12:48:00,42.4,41.7,29.71,SSW,203,6.0,7.0,97,0.00,,,0.12,meteohub,2013-02-13 17:48:00,
2013-02-13 12:53:00,42.4,41.4,29.71,South,169,1.0,9.0,96,0.00,,,0.12,meteohub,2013-02-13 17:53:00,
2013-02-13 12:58:00,42.4,41.4,29.69,SE,141,2.0,9.0,96,0.00,,,0.12,meteohub,2013-02-13 17:58:00,
2013-02-13 13:03:00,42.3,41.0,29.69,East,100,8.0,9.0,95,0.00,,,0.12,meteohub,2013-02-13 18:03:00,
2013-02-13 13:08:00,42.1,41.0,29.69,South,170,5.0,9.0,96,0.00,,,0.12,meteohub,2013-02-13 18:08:00,
2013-02-13 13:13:00,41.9,40.8,29.69,ESE,112,3.0,9.0,96,0.00,,,0.12,meteohub,2013-02-13 18:13:00,
2013-02-13 13:18:00,41.7,40.5,29.70,South,188,4.0,12.0,95,0.00,,,0.12,meteohub,2013-02-13 18:18:00,
2013-02-13 13:23:00,41.7,40.6,29.69,NW,309,5.0,12.0,96,0.00,,,0.12,meteohub,2013-02-13 18:23:00,
2013-02-13 13:28:00,41.7,40.6,29.69,South,186,8.0,10.0,96,0.00,,,0.12,meteohub,2013-02-13 18:28:00,
2013-02-13 13:33:00,42.1,41.0,29.69,SE,143,1.0,11.0,96,0.00,,,0.12,meteohub,2013-02-13 18:33:00,
2013-02-13 13:38:00,42.3,41.2,29.68,South,176,5.0,11.0,96,0.00,,,0.12,meteohub,2013-02-13 18:38:00,
2013-02-13 13:43:00,42.3,41.0,29.68,SSW,208,5.0,11.0,95,0.00,,,0.12,meteohub,2013-02-13 18:43:00,
2013-02-13 13:48:00,42.4,41.2,29.69,SW,228,11.0,11.0,95,0.00,,,0.12,meteohub,2013-02-13 18:48:00,
2013-02-13 13:53:00,42.3,41.0,29.69,SW,214,6.0,12.0,95,0.00,,,0.12,meteohub,2013-02-13 18:53:00,
2013-02-13 13:58:00,42.1,40.8,29.69,South,176,3.0,12.0,95,0.00,,,0.12,meteohub,2013-02-13 18:58:00,
2013-02-13 14:03:00,41.9,40.6,29.69,WSW,257,4.0,12.0,95,0.00,,,0.12,meteohub,2013-02-13 19:03:00,
2013-02-13 14:08:00,41.5,39.9,29.69,South,184,3.0,11.0,94,0.00,,,0.12,meteohub,2013-02-13 19:08:00,
2013-02-13 14:13:00,41.5,40.5,29.68,SW,229,3.0,12.0,96,0.00,,,0.12,meteohub,2013-02-13 19:13:00,
2013-02-13 14:18:00,41.7,40.5,29.68,SSW,197,4.0,12.0,95,0.00,,,0.12,meteohub,2013-02-13 19:18:00,
2013-02-13 14:23:00,42.1,41.0,29.69,SE,145,0.0,12.0,96,0.00,,,0.12,meteohub,2013-02-13 19:23:00,
2013-02-13 14:28:00,42.4,40.8,29.69,ESE,108,0.0,9.0,94,0.00,,,0.12,meteohub,2013-02-13 19:28:00,
2013-02-13 14:33:00,43.2,41.5,29.69,NNW,338,1.0,9.0,94,0.00,,,0.12,meteohub,2013-02-13 19:33:00,
2013-02-13 14:38:00,44.2,42.3,29.69,SSW,193,3.0,7.0,93,0.00,,,0.12,meteohub,2013-02-13 19:38:00,
2013-02-13 14:43:00,44.1,41.9,29.69,South,181,0.0,7.0,92,0.00,,,0.12,meteohub,2013-02-13 19:43:00,
2013-02-13 14:48:00,44.2,41.7,29.69,SE,146,4.0,6.0,91,0.00,,,0.12,meteohub,2013-02-13 19:48:00,
2013-02-13 14:53:00,44.4,41.9,29.68,East,91,1.0,7.0,91,0.00,,,0.12,meteohub,2013-02-13 19:53:00,
2013-02-13 14:58:00,44.2,42.1,29.69,SSW,193,1.0,7.0,92,0.00,,,0.12,meteohub,2013-02-13 19:58:00,
2013-02-13 15:03:00,44.1,41.9,29.68,SSW,212,2.0,7.0,92,0.00,,,0.12,meteohub,2013-02-13 20:03:00,
2013-02-13 15:08:00,44.4,41.4,29.68,SSE,167,0.0,7.0,89,0.00,,,0.12,meteohub,2013-02-13 20:08:00,
2013-02-13 15:13:00,44.8,41.4,29.68,SSW,200,1.0,8.0,88,0.00,,,0.12,meteohub,2013-02-13 20:13:00,
2013-02-13 15:18:00,45.0,41.9,29.68,SSW,205,5.0,8.0,89,0.00,,,0.12,meteohub,2013-02-13 20:18:00,
2013-02-13 15:23:00,45.7,42.3,29.68,NNE,27,1.0,8.0,88,0.00,,,0.12,meteohub,2013-02-13 20:23:00,
2013-02-13 15:28:00,45.7,42.1,29.69,SW,231,2.0,8.0,87,0.00,,,0.12,meteohub,2013-02-13 20:28:00,
2013-02-13 15:33:00,45.5,42.1,29.69,SW,215,5.0,8.0,88,0.00,,,0.12,meteohub,2013-02-13 20:33:00,
2013-02-13 15:38:00,45.5,41.9,29.69,NW,322,11.0,11.0,87,0.00,,,0.12,meteohub,2013-02-13 20:38:00,
2013-02-13 15:43:00,45.7,42.1,29.69,SSE,153,0.0,8.0,87,0.00,,,0.12,meteohub,2013-02-13 20:43:00,
2013-02-13 15:48:00,45.9,41.4,29.69,WSW,250,0.0,11.0,84,0.00,,,0.12,meteohub,2013-02-13 20:48:00,
2013-02-13 15:53:00,45.9,40.3,29.70,WNW,286,3.0,11.0,81,0.00,,,0.12,meteohub,2013-02-13 20:53:00,
2013-02-13 15:58:00,45.9,40.1,29.70,SSW,196,6.0,11.0,80,0.00,,,0.12,meteohub,2013-02-13 20:58:00,
2013-02-13 16:03:00,45.9,39.7,29.71,WSW,248,2.0,13.0,79,0.00,,,0.12,meteohub,2013-02-13 21:03:00,
2013-02-13 16:08:00,46.0,40.3,29.71,WNW,284,4.0,14.0,80,0.00,,,0.12,meteohub,2013-02-13 21:08:00,
2013-02-13 16:13:00,46.0,39.9,29.71,WSW,248,8.0,14.0,79,0.00,,,0.12,meteohub,2013-02-13 21:13:00,
2013-02-13 16:18:00,46.0,39.9,29.71,West,279,2.0,14.0,79,0.00,,,0.12,meteohub,2013-02-13 21:18:00,
2013-02-13 16:23:00,46.0,40.5,29.71,NW,314,4.0,13.0,81,0.00,,,0.12,meteohub,2013-02-13 21:23:00,
2013-02-13 16:28:00,46.0,40.5,29.71,WNW,286,1.0,11.0,81,0.00,,,0.12,meteohub,2013-02-13 21:28:00,
2013-02-13 16:34:00,46.0,40.8,29.71,West,269,1.0,10.0,82,0.00,,,0.12,meteohub,2013-02-13 21:34:00,
2013-02-13 16:39:00,45.7,41.2,29.72,NW,309,0.0,5.0,84,0.00,,,0.12,meteohub,2013-02-13 21:39:00,
2013-02-13 16:44:00,45.3,40.1,29.71,West,264,4.0,6.0,82,0.00,,,0.12,meteohub,2013-02-13 21:44:00,
2013-02-13 16:49:00,45.0,38.8,29.72,West,262,8.0,12.0,79,0.00,,,0.12,meteohub,2013-02-13 21:49:00,
2013-02-13 16:54:00,45.1,39.0,29.73,WSW,241,2.0,12.0,79,0.00,,,0.12,meteohub,2013-02-13 21:54:00,
2013-02-13 16:59:00,45.0,38.5,29.72,North,5,2.0,17.0,78,0.00,,,0.12,meteohub,2013-02-13 21:59:00,
2013-02-13 17:04:00,44.4,38.7,29.73,WSW,249,3.0,17.0,80,0.00,,,0.12,meteohub,2013-02-13 22:04:00,
2013-02-13 17:09:00,44.8,38.7,29.73,WSW,253,5.0,14.0,79,0.00,,,0.12,meteohub,2013-02-13 22:09:00,
2013-02-13 17:14:00,45.0,38.1,29.73,SW,226,8.0,14.0,77,0.00,,,0.12,meteohub,2013-02-13 22:14:00,
2013-02-13 17:19:00,45.1,37.9,29.73,WSW,253,5.0,14.0,76,0.00,,,0.12,meteohub,2013-02-13 22:19:00,
2013-02-13 17:24:00,44.8,36.7,29.73,West,265,9.0,14.0,73,0.00,,,0.12,meteohub,2013-02-13 22:24:00,
2013-02-13 17:29:00,44.4,37.0,29.73,NW,308,4.0,13.0,75,0.00,,,0.12,meteohub,2013-02-13 22:29:00,
2013-02-13 17:34:00,44.1,36.3,29.73,WSW,245,12.0,13.0,74,0.00,,,0.12,meteohub,2013-02-13 22:34:00,
2013-02-13 17:39:00,43.5,35.8,29.74,NNW,328,0.0,13.0,74,0.00,,,0.12,meteohub,2013-02-13 22:39:00,
2013-02-13 17:44:00,43.3,36.0,29.74,WNW,286,4.0,12.0,75,0.00,,,0.12,meteohub,2013-02-13 22:44:00,
2013-02-13 17:49:00,43.0,36.0,29.74,WNW,284,4.0,12.0,76,0.00,,,0.12,meteohub,2013-02-13 22:49:00,
2013-02-13 17:54:00,42.6,35.6,29.75,WNW,288,2.0,10.0,76,0.00,,,0.12,meteohub,2013-02-13 22:54:00,
2013-02-13 17:59:00,42.3,35.2,29.75,NW,319,3.0,12.0,76,0.00,,,0.12,meteohub,2013-02-13 22:59:00,
2013-02-13 18:04:00,41.9,35.2,29.76,NW,323,2.0,12.0,77,0.00,,,0.12,meteohub,2013-02-13 23:04:00,
2013-02-13 18:09:00,41.7,35.4,29.77,South,169,3.0,12.0,78,0.00,,,0.12,meteohub,2013-02-13 23:09:00,
2013-02-13 18:14:00,41.5,35.2,29.77,NNW,340,1.0,10.0,78,0.00,,,0.12,meteohub,2013-02-13 23:14:00,
2013-02-13 18:19:00,41.5,34.9,29.77,NW,305,6.0,11.0,77,0.00,,,0.12,meteohub,2013-02-13 23:19:00,
2013-02-13 18:24:00,41.2,35.2,29.77,WNW,300,1.0,11.0,79,0.00,,,0.12,meteohub,2013-02-13 23:24:00,
2013-02-13 18:29:00,40.8,34.9,29.77,South,183,2.0,13.0,79,0.00,,,0.12,meteohub,2013-02-13 23:29:00,
2013-02-13 18:34:00,40.6,34.9,29.78,West,279,1.0,13.0,80,0.00,,,0.12,meteohub,2013-02-13 23:34:00,
2013-02-13 18:39:00,40.8,34.9,29.77,West,270,2.0,8.0,79,0.00,,,0.12,meteohub,2013-02-13 23:39:00,
2013-02-13 18:44:00,40.6,34.9,29.78,NNW,345,0.0,12.0,80,0.00,,,0.12,meteohub,2013-02-13 23:44:00,
2013-02-13 18:49:00,40.3,34.9,29.78,SW,217,0.0,12.0,81,0.00,,,0.12,meteohub,2013-02-13 23:49:00,
2013-02-13 18:54:00,39.7,34.3,29.79,ENE,69,0.0,10.0,81,0.00,,,0.12,meteohub,2013-02-13 23:54:00,
2013-02-13 18:59:00,39.6,34.5,29.79,ESE,122,0.0,6.0,82,0.00,,,0.12,meteohub,2013-02-13 23:59:00,
2013-02-13 19:04:00,39.4,34.3,29.79,East,96,0.0,6.0,82,0.00,,,0.12,meteohub,2013-02-14 00:04:00,
2013-02-13 19:09:00,39.0,34.3,29.80,West,266,0.0,8.0,83,0.00,,,0.00,meteohub,2013-02-14 00:09:00,
2013-02-13 19:14:00,38.8,34.2,29.80,SSW,196,0.0,8.0,83,0.00,,,0.00,meteohub,2013-02-14 00:14:00,
2013-02-13 19:19:00,38.7,34.0,29.81,NW,321,0.0,8.0,83,0.00,,,0.00,meteohub,2013-02-14 00:19:00,
2013-02-13 19:24:00,38.3,34.0,29.81,NW,308,2.0,3.0,84,0.00,,,0.00,meteohub,2013-02-14 00:24:00,
2013-02-13 19:29:00,38.3,33.6,29.81,East,79,3.0,4.0,83,0.00,,,0.00,meteohub,2013-02-14 00:29:00,
2013-02-13 19:34:00,38.5,33.8,29.81,NNW,338,0.0,4.0,83,0.00,,,0.00,meteohub,2013-02-14 00:34:00,
2013-02-13 19:39:00,38.3,33.6,29.81,WNW,289,1.0,5.0,83,0.00,,,0.00,meteohub,2013-02-14 00:39:00,
2013-02-13 19:44:00,38.3,33.6,29.81,NNW,340,0.0,5.0,83,0.00,,,0.00,meteohub,2013-02-14 00:44:00,
2013-02-13 19:49:00,37.8,33.4,29.81,West,273,0.0,5.0,84,0.00,,,0.00,meteohub,2013-02-14 00:49:00,
2013-02-13 19:54:00,37.6,33.3,29.82,NNE,30,0.0,4.0,84,0.00,,,0.00,meteohub,2013-02-14 00:54:00,
2013-02-13 19:59:00,36.9,33.4,29.82,East,84,0.0,3.0,87,0.00,,,0.00,meteohub,2013-02-14 00:59:00,
2013-02-13 20:04:00,36.5,33.1,29.83,ESE,103,0.0,1.0,87,0.00,,,0.00,meteohub,2013-02-14 01:04:00,
2013-02-13 20:09:00,36.3,32.9,29.83,South,183,0.0,1.0,87,0.00,,,0.00,meteohub,2013-02-14 01:09:00,
2013-02-13 20:14:00,36.1,32.9,29.83,South,183,0.0,1.0,88,0.00,,,0.00,meteohub,2013-02-14 01:14:00,
2013-02-13 20:19:00,35.4,32.5,29.83,South,183,0.0,1.0,89,0.00,,,0.00,meteohub,2013-02-14 01:19:00,
2013-02-13 20:24:00,35.2,32.4,29.83,South,183,0.0,1.0,89,0.00,,,0.00,meteohub,2013-02-14 01:24:00,
2013-02-13 20:29:00,35.4,32.2,29.83,South,183,0.0,0.0,88,0.00,,,0.00,meteohub,2013-02-14 01:29:00,
2013-02-13 20:34:00,35.1,32.2,29.84,South,183,0.0,0.0,89,0.00,,,0.00,meteohub,2013-02-14 01:34:00,
2013-02-13 20:39:00,34.7,32.0,29.84,South,183,0.0,0.0,90,0.00,,,0.00,meteohub,2013-02-14 01:39:00,
2013-02-13 20:44:00,34.5,31.8,29.84,West,271,0.0,0.0,90,0.00,,,0.00,meteohub,2013-02-14 01:44:00,
2013-02-13 20:49:00,34.5,31.8,29.84,East,79,0.0,2.0,90,0.00,,,0.00,meteohub,2013-02-14 01:49:00,
2013-02-13 20:54:00,34.9,31.6,29.85,NNW,338,0.0,2.0,88,0.00,,,0.00,meteohub,2013-02-14 01:54:00,
2013-02-13 20:59:00,34.9,31.6,29.85,North,354,0.0,2.0,88,0.00,,,0.00,meteohub,2013-02-14 01:59:00,
2013-02-13 21:04:00,34.3,31.5,29.85,NNE,25,0.0,2.0,89,0.00,,,0.00,meteohub,2013-02-14 02:04:00,
2013-02-13 21:09:00,34.2,30.9,29.85,NNW,336,0.0,2.0,88,0.00,,,0.00,meteohub,2013-02-14 02:09:00,
2013-02-13 21:14:00,34.0,31.1,29.86,SE,125,0.0,2.0,89,0.00,,,0.00,meteohub,2013-02-14 02:14:00,
2013-02-13 21:19:00,33.3,30.9,29.86,SW,224,0.0,2.0,91,0.00,,,0.00,meteohub,2013-02-14 02:19:00,
2013-02-13 21:24:00,32.7,30.9,29.86,West,260,0.0,2.0,93,0.00,,,0.00,meteohub,2013-02-14 02:24:00,
2013-02-13 21:29:00,32.7,31.1,29.86,SE,124,0.0,2.0,94,0.00,,,0.00,meteohub,2013-02-14 02:29:00,
2013-02-13 21:34:00,32.4,30.7,29.86,NE,44,0.0,2.0,94,0.00,,,0.00,meteohub,2013-02-14 02:34:00,
2013-02-13 21:39:00,32.0,30.2,29.86,NNE,23,1.0,2.0,93,0.00,,,0.00,meteohub,2013-02-14 02:39:00,
2013-02-13 21:44:00,31.8,30.4,29.87,NNE,23,0.0,1.0,94,0.00,,,0.00,meteohub,2013-02-14 02:44:00,
2013-02-13 21:50:00,31.6,30.2,29.87,SSW,207,0.0,1.0,94,0.00,,,0.00,meteohub,2013-02-14 02:50:00,
2013-02-13 21:55:00,32.4,30.6,29.87,East,90,1.0,1.0,93,0.00,,,0.00,meteohub,2013-02-14 02:55:00,
2013-02-13 22:00:00,32.7,30.2,29.87,NE,40,0.0,1.0,90,0.00,,,0.00,meteohub,2013-02-14 03:00:00,
2013-02-13 22:05:00,32.4,30.0,29.88,ENE,76,0.0,1.0,91,0.00,,,0.00,meteohub,2013-02-14 03:05:00,
2013-02-13 22:10:00,31.6,29.8,29.88,ENE,76,0.0,1.0,93,0.00,,,0.00,meteohub,2013-02-14 03:10:00,
2013-02-13 22:15:00,31.3,29.8,29.88,NE,54,0.0,1.0,94,0.00,,,0.00,meteohub,2013-02-14 03:15:00,
2013-02-13 22:20:00,30.9,29.7,29.88,SE,125,0.0,1.0,95,0.00,,,0.00,meteohub,2013-02-14 03:20:00,
2013-02-13 22:25:00,30.6,29.5,29.88,SE,125,0.0,1.0,96,0.00,,,0.00,meteohub,2013-02-14 03:25:00,
2013-02-13 22:30:00,30.6,29.5,29.88,SE,125,0.0,1.0,96,0.00,,,0.00,meteohub,2013-02-14 03:30:00,
2013-02-13 22:35:00,30.4,29.3,29.88,SE,125,0.0,1.0,96,0.00,,,0.00,meteohub,2013-02-14 03:35:00,
2013-02-13 22:40:00,30.6,29.5,29.88,SE,125,0.0,0.0,96,0.00,,,0.00,meteohub,2013-02-14 03:40:00,
2013-02-13 22:45:00,30.7,30.0,29.89,SE,125,0.0,0.0,97,0.00,,,0.00,meteohub,2013-02-14 03:45:00,
2013-02-13 22:50:00,30.6,29.5,29.89,SE,125,0.0,0.0,96,0.00,,,0.00,meteohub,2013-02-14 03:50:00,
2013-02-13 22:55:00,30.4,29.3,29.89,SE,125,0.0,0.0,96,0.00,,,0.00,meteohub,2013-02-14 03:55:00,
2013-02-13 23:00:00,30.4,29.3,29.90,SE,126,0.0,0.0,96,0.00,,,0.00,meteohub,2013-02-14 04:00:00,
2013-02-13 23:05:00,30.7,28.9,29.90,ESE,106,0.0,1.0,93,0.00,,,0.00,meteohub,2013-02-14 04:05:00,
2013-02-13 23:10:00,31.5,29.5,29.90,NE,49,0.0,2.0,92,0.00,,,0.00,meteohub,2013-02-14 04:10:00,
2013-02-13 23:15:00,31.5,28.9,29.90,NNE,27,0.0,2.0,90,0.00,,,0.00,meteohub,2013-02-14 04:15:00,
2013-02-13 23:20:00,31.6,28.8,29.90,NNE,27,0.0,2.0,89,0.00,,,0.00,meteohub,2013-02-14 04:20:00,
2013-02-13 23:25:00,31.6,28.8,29.90,NNE,27,0.0,1.0,89,0.00,,,0.00,meteohub,2013-02-14 04:25:00,
2013-02-13 23:30:00,31.5,28.6,29.90,NNE,27,0.0,0.0,89,0.00,,,0.00,meteohub,2013-02-14 04:30:00,
2013-02-13 23:35:00,31.6,28.6,29.90,NNE,27,0.0,1.0,88,0.00,,,0.00,meteohub,2013-02-14 04:35:00,
2013-02-13 23:40:00,31.6,28.6,29.90,North,356,0.0,1.0,88,0.00,,,0.00,meteohub,2013-02-14 04:40:00,
2013-02-13 23:45:00,31.6,28.6,29.91,North,356,0.0,1.0,88,0.00,,,0.00,meteohub,2013-02-14 04:45:00,
2013-02-13 23:50:00,31.5,28.6,29.91,North,354,0.0,1.0,89,0.00,,,0.00,meteohub,2013-02-14 04:50:00,
2013-02-13 23:55:00,31.3,28.4,29.91,WNW,283,0.0,0.0,89,0.00,,,0.00,meteohub,2013-02-14 04:55:00,